Regional Weather Roundup
Issued by NWS

Home | Current Version | Previous Version | Text Only | Print | Product List | Glossary Off
Versions: 1 2 3 4 5 6 7 8 9 10 11 12 13 14 15 16 17 18 19 20 21 22 23 24 25 26 27 28 29 30 31 32 33 34 35 36 37 38 39 40 41 42 43 44 45 46 47 48 49 50

000
ASUS43 KIND 271300
RWRIN

WEATHER ROUNDUP FOR INDIANA
NATIONAL WEATHER SERVICE INDIANAPOLIS IN
900 AM EDT TUE JUN 27 2017

NOTE: "FAIR" INDICATES FEW OR NO CLOUDS BELOW 12,000 FEET WITH NO
SIGNIFICANT WEATHER AND/OR OBSTRUCTIONS TO VISIBILITY.

* - STATION DOES NOT REPORT WEATHER SUCH AS PRECIPITATION OR FOG.

+ - STATION NOT QUALITY CONTROLLED BY THE NATIONAL WEATHER SERVICE.
    USE DATA WITH CAUTION...ESPECIALLY DEWPOINT AND RELATIVE
    HUMIDITY OBSERVATIONS.

INZ001>003-010>013-019-020-271400-
NORTHWEST INDIANA

CITY           SKY/WX    TMP DP  RH WIND       PRES   REMARKS
GARY /AIRPORT/ SUNNY     63  46  55 CALM      30.14S
KNOX *+        SUNNY     59  43  55 CALM      30.15R
MICHIGAN CITY+ SUNNY     61  52  72 SW6       30.14R
MONTICELLO +   SUNNY     58  49  72 NW3       30.16R

$$

LMZ046-743>745-271400-
SOUTHERN LAKE MICHIGAN

STATION/POSITION TIME  TEMP    WIND        PRES    WAVE
                       AIR SEA DIR/SP/G            HT
                 (UTC) (F)     (DEG/KT/KT) (MB)    (FT)
BURNS HARBOR     1240   62     240/  4/  7 1021.0R
MICHIGAN CITY    1230   61     250/  9/ 10   N/A
5NW MICH CITY    1250   62 65  240/  6/  8   N/A     2

$$

INZ004-005-014>016-021>024-271400-
NORTH CENTRAL INDIANA

CITY           SKY/WX    TMP DP  RH WIND       PRES   REMARKS
ELKHART        SUNNY     61  50  67 W9        30.14
GOSHEN         SUNNY     59  50  72 W7        30.14R
SOUTH BEND     SUNNY     60  52  74 W6        30.14R

$$

INZ006>009-017-018-025>027-271400-
NORTHEAST INDIANA

CITY           SKY/WX    TMP DP  RH WIND       PRES   REMARKS
FORT WAYNE     MOSUNNY   59  51  75 NW7       30.15R
KENDALLVILLE + SUNNY     58  49  70 CALM      30.13R

$$

INZ028-029-035-036-043>045-051>053-271400-
WEST CENTRAL INDIANA

CITY           SKY/WX    TMP DP  RH WIND       PRES   REMARKS
CRAWFORDSVL +  SUNNY     57  52  83 NW3       30.17R
LAFAYETTE      SUNNY     55  55 100 CALM      30.17R
TERRE HAUTE    SUNNY     61  53  75 CALM      30.17R

$$

INZ030>032-037>040-046>048-054>057-064-065-271400-
CENTRAL INDIANA

CITY           SKY/WX    TMP DP  RH WIND       PRES   REMARKS
ANDERSON       SUNNY     64  52  63 MISG        N/A
COLUMBUS       SUNNY     57  50  77 CALM      30.17S
GREENWOOD *+   SUNNY     60  50  69 CALM      30.17R
INDIANAPOLIS   SUNNY     62  52  69 NW3       30.16R
-EAGLE CREEK   SUNNY     62  49  62 NW6       30.16R
KOKOMO +       SUNNY     60  52  74 NW9       30.17R
MT COMFORT *+  SUNNY     59  52  77 NW7       30.16S
SHELBYVILLE    SUNNY     62  50  64 CALM      30.16R

$$

INZ033-034-041-042-049-050-058-059-271400-
EAST CENTRAL INDIANA

CITY           SKY/WX    TMP DP  RH WIND       PRES   REMARKS
MUNCIE         SUNNY     61  52  72 NW8       30.16R
RICHMOND +     SUNNY     55  50  82 NW6       30.16R

$$

INZ060-061-067>069-081>083-085>088-271400-
SOUTHWEST INDIANA

CITY           SKY/WX    TMP DP  RH WIND       PRES   REMARKS
EVANSVILLE     SUNNY     67  53  61 N5        30.17R
HUNTINGBURG *+ SUNNY     62  56  80 NE6       30.17R

$$

INZ062-063-066-070>080-084-089>092-271400-
SOUTH CENTRAL AND SOUTHEAST INDIANA

CITY           SKY/WX    TMP DP  RH WIND       PRES   REMARKS
BLOOMINGTON    SUNNY     61  52  72 CALM      30.16R
MADISON *+     SUNNY     61  50  67 N3        30.19R
SEYMOUR +      MOSUNNY   63  52  67 CALM      30.16S

$$





USA.gov is the U.S. government's official web portal to all federal, state and local government web resources and services.